Flag for Canada Weather past 2 weeks in Coquitlam, British Columbia, Canada

Now
55 °F

Cool.


Feels Like: 55 °F
Forecast: 48 / 53 °F
Wind: 3 mph from South

Location: P. Meadows Coastal Station

Current Time: Oct 23, 2014 at 1:14:22 AM

Latest Report: Oct 23, 2014 at 12:00 AM


Visibility: N/A

Pressure: 29.61 "Hg

Humidity: 83%

Dew point: 50 °F

Location of CoquitlamLocation

Historic Weather in Coquitlam — Graph

°F

Coquitlam temperature yesterday

Maximum temperature yesterday: 62 °F (at 2:00 AM)
Minimum temperature yesterday: 52 °F (at 7:00 PM)
Average temperature yesterday: 56 °F

Past Weeks' High & Low Weather Summary

 TemperatureHumidityPressure
High72 °F (Oct 9, 4:00 PM)100% (Oct 8, 3:00 AM)30.24 "Hg (Oct 8, 3:00 AM)
Low47 °F (Oct 17, 12:00 AM)54% (Oct 19, 1:00 PM)29.50 "Hg (Oct 22, 8:00 PM)
Average56 °F89%29.85 "Hg
* Reported Midnight between Oct 7 and Oct 8 — Midnight between Oct 22 and Oct 23, Coquitlam, Weather by CustomWeather, © 2014

Note: Actual official high and low records may vary slightly from our data, if they occured in-between our weather recording intervals... More about our weather records

Advertising

Coquitlam weather history for previous 24 hours

 ConditionsComfort  
Time TempWeatherWind HumidityBarometerVisibility
12:00 AM
Oct 23
55 °FCool.3 mph83%29.61 "HgN/A
11:00 PM
Oct 22
55 °FCool.7 mph88%29.57 "HgN/A
10:00 PM55 °FCool.5 mph91%29.52 "HgN/A
8:00 PM52 °FCool.2 mph97%29.50 "HgN/A
7:00 PM52 °FCool.6 mph89%29.52 "HgN/A
6:00 PM53 °FCool.9 mph87%29.55 "HgN/A
5:00 PM55 °FCool.2 mph94%29.57 "HgN/A
4:00 PM55 °FCool.3 mph94%29.61 "HgN/A
3:00 PM55 °FCool.1 mph94%29.64 "HgN/A
2:00 PM57 °FCool.2 mph89%29.66 "HgN/A
1:00 PM57 °FCool.5 mph90%29.67 "HgN/A
12:00 PM58 °FCool.2 mph85%29.67 "HgN/A
11:00 AM58 °FCool.3 mph84%29.67 "HgN/A
10:00 AM57 °FCool.5 mph84%29.67 "HgN/A
9:00 AM57 °FCool.6 mph85%29.66 "HgN/A
8:00 AM54 °FCool.7 mph91%29.64 "HgN/A
7:00 AM56 °FCool.6 mph84%29.62 "HgN/A
6:00 AM54 °FCool.5 mph88%29.62 "HgN/A
5:00 AM55 °FCool.6 mph88%29.61 "HgN/A
4:00 AM56 °FCool.7 mph79%29.60 "HgN/A
3:00 AM58 °FCool.7 mph73%29.59 "HgN/A
2:00 AM62 °FRefreshingly cool.20 mph54%29.58 "HgN/A
1:00 AM61 °FRefreshingly cool.16 mph60%29.60 "HgN/A
Weather by CustomWeather, © 2014

See weather overviewHow to use our weather pages